This is the latest recevied weather packets stored in our database for station/object lu6fg. If no packets are shown the sender has not sent any weather packets the latest 10 day(s).
| Time | Temp. | Humidity | Pressure | Rain* | Wind** | Luminosity | Snow |
|---|---|---|---|---|---|---|---|
| 1778262093 | 13.89° C | 40% | 1008.5 hPa | 0 mm | - | - | - |
| 1778261832 | 13.89° C | 40% | 1008.3 hPa | 0 mm | - | - | - |
| 1778261793 | 13.89° C | 40% | 1008.4 hPa | 0 mm | - | - | - |
| 1778261592 | 13.89° C | 40% | 1008.5 hPa | 0 mm | - | - | - |
| 1778261052 | 13.33° C | 40% | 1008.2 hPa | 0 mm | - | - | - |
| 1778260932 | 13.33° C | 40% | 1008.4 hPa | 0 mm | - | - | - |
| 1778260812 | 13.89° C | 40% | 1008.4 hPa | 0 mm | - | - | - |
| 1778260692 | 13.89° C | 41% | 1008.4 hPa | 0 mm | - | - | - |
| 1778259792 | 13.89° C | 42% | 1008.6 hPa | 0 mm | - | - | - |
| 1778259432 | 13.33° C | 41% | 1008.7 hPa | 0 mm | - | - | - |
| 1778259012 | 13.89° C | 41% | 1008.6 hPa | 0 mm | - | - | - |
| 1778258973 | 13.89° C | 41% | 1008.6 hPa | 0 mm | - | - | - |
| 1778258532 | 13.33° C | 44% | 1008.9 hPa | 0 mm | - | - | - |
| 1778258412 | 13.33° C | 43% | 1009 hPa | 0 mm | - | - | - |
| 1778258352 | 13.33° C | 43% | 1009 hPa | 0 mm | - | - | - |
| 1778257572 | 12.78° C | 44% | 1009.1 hPa | 0 mm | - | - | - |
| 1778257413 | 12.78° C | 44% | 1009.1 hPa | 0 mm | - | - | - |
| 1778257332 | 12.78° C | 45% | 1009 hPa | 0 mm | - | - | - |
| 1778257272 | 12.78° C | 44% | 1009.2 hPa | 0 mm | - | - | - |
| 1778257152 | 12.78° C | 45% | 1009.2 hPa | 0 mm | - | - | - |
| 1778256852 | 12.22° C | 46% | 1009.1 hPa | 0 mm | - | - | - |
| 1778256551 | 12.78° C | 45% | 1009.3 hPa | 0 mm | - | - | - |
| 1778256252 | 12.22° C | 46% | 1009.3 hPa | 0 mm | - | - | - |
| 1778256192 | 12.22° C | 46% | 1009.4 hPa | 0 mm | - | - | - |
| 1778255171 | 12.22° C | 47% | 1009.6 hPa | 0 mm | - | - | - |
* Rain latest hour (hover to see other rain measurements)
** Current wind speed in m/s (hover to see current wind gust speed)